Location: Possagno
(45.8500°N, 11.8667°E)
Time: 03:08:34
(UTC+00:00)

SL-16 R/B - Pass Details

Date: 07 June 2020
Orbit: 986 x 1006 km, 99.5° (Epoch: 06 July)

Event Time Altitude Azimuth Distance (km) Brightness Sun altitude
Exits shadow 00:10:23 13° 138° (SE) 2,498 4.3 -20.1°
Maximum altitude 00:15:37 51° 67° (ENE) 1,233 3.2 -19.8°
Drops below altitude 10° 00:21:34 10° 354° (N) 2,764 5.9 -19.5°
Sets 00:24:07 0° 349° (N) 3,719 6.6 -19.4°
